This demonstration page uses our WeatherBlox Daily Observations layout. Learn more.

Left ArrowRight Arrow

39.01783, -85.05884

Hourly Observations for February 2, 2016

Temp ( °F °C ) Dew Point ( °F °C ) Humidity (%) Winds ( mph kmh ) Pressure ( in mb ) Visibility ( mi km ) Precip ( " mm )
12:52 am 00:52 Clear 37 2.8 31 -0.6 79 79 SE 3 6 30.10 1019 10 16 N/A
1:52 am 01:52 Clear 36 2.2 30 -1.1 79 79 ENE 6 9 30.09 1019 10 16 N/A
2:52 am 02:52 Partly Cloudy 37 2.8 31 -0.6 79 79 ENE 7 11 30.08 1019 10 16 N/A
3:52 am 03:52 Mostly Cloudy 35 1.7 30 -1.1 82 82 ENE 6 9 30.10 1019 10 16 N/A
4:52 am 04:52 Mostly Cloudy 34 1.1 30 -1.1 85 85 E 6 9 30.11 1020 10 16 N/A
5:52 am 05:52 Cloudy 36 2.2 32 undefined 86 86 E 13 20 30.08 1019 10 16 N/A
6:52 am 06:52 Mostly Cloudy 36 2.2 32 undefined 86 86 E 9 15 30.08 1019 9 14 N/A
7:52 am 07:52 Cloudy 37 2.8 33 0.6 86 86 E 14 22 30.07 1018 8 13 N/A
8:52 am 08:52 Mostly Cloudy 39 3.9 34 1.1 82 82 E 10 17 30.06 1018 8 13 N/A
9:52 am 09:52 Cloudy 42 5.6 35 1.7 76 76 E 10 17 30.08 1019 9 14 N/A
10:52 am 10:52 Mostly Cloudy 46 7.8 37 2.8 71 71 ESE 20 31 30.02 1017 10 16 N/A
11:10 am 11:10 Cloudy 46 8 37 3 71 71 ESE 15 24 30.06 1018 10 16 N/A
11:52 am 11:52 Cloudy 49 9.4 40 4.4 71 71 ESE 15 24 29.98 1015 10 16 N/A
12:21 pm 12:21 Cloudy 50 10 43 6 76 76 ESE 16 26 29.94 1014 10 16 N/A
12:52 pm 12:52 Mostly Cloudy 53 11.7 44 6.7 72 72 SE 16 26 29.91 1013 10 16 N/A
1:52 pm 13:52 Mostly Cloudy 57 13.9 46 7.8 67 67 ESE 17 28 29.84 1010 10 16 N/A
2:52 pm 14:52 Mostly Cloudy 60 15.6 48 8.9 65 65 SE 17 28 29.78 1008 10 16 N/A
3:52 pm 15:52 Cloudy with Light Rain 56 13.3 52 11.1 87 87 SE 9 15 29.76 1008 7 11 0.04 1.02
4:52 pm 16:52 Cloudy with Light Rain 57 13.9 52 11.1 83 83 ESE 12 19 29.73 1007 9 14 0.02 0.51
5:36 pm 17:36 Cloudy with Thunderstorms 59 15 52 11 77 77 SE 16 26 29.74 1007 10 16 N/A
5:52 pm 17:52 Cloudy with Light Rain 60 15.6 53 11.7 78 78 SSE 17 28 29.72 1006 9 14 N/A
6:52 pm 18:52 Cloudy with Light Rain 59 15 53 11.7 81 81 ESE 10 17 29.69 1005 9 14 0.01 0.25
7:08 pm 19:08 Cloudy with Thunderstorms 59 15 54 12 82 82 SE 12 19 29.65 1004 10 16 N/A
7:31 pm 19:31 Cloudy with Light Rain 59 15 54 12 82 82 SE 10 17 29.65 1004 7 11 0.02 0.51
7:52 pm 19:52 Cloudy with Rain 58 14.4 55 12.8 90 90 SSE 9 15 29.68 1005 3 5 0.08 2.03
8:52 pm 20:52 Cloudy with Light Rain 59 15 56 13.3 90 90 S 9 15 29.70 1006 5 8 0.30 7.62
9:52 pm 21:52 Cloudy with Rain 60 15.6 56 13.3 86 86 SSE 22 35 29.66 1005 6 10 0.11 2.79
10:52 pm 22:52 Cloudy with Heavy Rain 60 15.6 57 13.9 90 90 SSE 23 37 29.60 1003 4 6 0.18 4.57
11:52 pm 23:52 Cloudy with Heavy Rain 59 15 57 13.9 93 93 S 22 35 29.59 1002 2 3 0.18 4.57

Powered by AerisWeather